Location: Praha
(50.0830°N, 14.4670°E)
Time: 14:53:04
(UTC+02:00)

ISS - Pass Details

Date: 04 May 2019
Orbit: 408 x 410 km, 51.6° (Epoch: 18 April)

Event Time Altitude Azimuth Distance (km) Brightness Sun altitude
Exits shadow 03:36:27 17° 158° (SSE) 1,117 -1.9 -15.5°
Maximum altitude 03:37:10 18° 141° (SE) 1,075 -1.8 -15.5°
Drops below altitude 10° 03:39:31 10° 96° (E) 1,474 -0.5 -15.2°
Sets 03:42:02 0° 76° (ENE) 2,339 1.0 -15.0°
